Montpelier, VT

3:37 PM EST on November 20, 2019 (GMT -0500)
Knapp State

Weather History for KMPV - August, 2019

Change the Weather History Date:

Wednesday, August 14, 2019

  Actual Average Record
Temperature  
Mean Temperature 64 °F 66 °F  
Max Temperature 75 °F 77 °F 90 °F (2002)
Min Temperature 52 °F 54 °F 42 °F (1966)
Degree Days  
Heating Degree Days 1 2  
Month to date heating degree days 20 24  
Since 1 June heating degree days 173 185  
Since 1 July heating degree days 29 64  
Cooling Degree Days 0 3  
Month to date cooling degree days 16 42  
Year to date cooling degree days 174 210  
Since 1 June cooling degree days 173 200  
Growing Degree Days 14 (Base 50)    
Moisture  
Dew Point 54 °F    
Average Humidity 86    
Maximum Humidity 100    
Minimum Humidity 43    
Precipitation  
Precipitation 0.00 in 0.14 in 1.67 in (1977)
Month to date precipitation 2.08 2.07  
Year to date precipitation 32.63 22.86  
Sea Level Pressure  
Sea Level Pressure 29.94 in    
Wind  
Wind Speed 2 mph ()    
Max Wind Speed 13 mph    
Max Gust Speed 16 mph    
Visibility 6.6 miles    
Events Fog    
T = Trace of Precipitation, MM = Missing Value Source: Averaged Metar Reports

Daily Weather History Graph

Daily Weather History Graph

Search for Another Location

Airport or City:

Astronomy

Aug. 14, 2019 Rise Set
Actual Time 5:52 AM EDT 7:56 PM EDT
Civil Twilight 5:20 AM EDT 8:28 PM EDT
Nautical Twilight 4:41 AM EDT 9:06 PM EDT
Astronomical Twilight 3:58 AM EDT 9:49 PM EDT
Moon 7:51 PM EDT (8/14) 4:43 AM EDT (8/14)
Length of Visible Light 15h 07m
Length of Day
14h 04m
Waxing Gibbous, 99% of the Moon is Illuminated
Aug 14
Waxing Gibbous
Aug 15
Full
Aug 23
Last Quarter
Aug 30
New
Sep 5
First Quarter

Hourly Weather History & Observations

Time (EDT) Temp. Dew Point Humidity Pressure Visibility Wind Dir Wind Speed Gust Speed Precip Events Conditions
12:51 AM 55.0 °F 54.0 °F 96% 29.90 in 10.0 mi Calm Calm - N/A   Clear
1:30 AM 55.9 °F 55.0 °F 97% 29.90 in 3.0 mi NE 3.5 mph - N/A   Mostly Cloudy
1:33 AM 55.9 °F 55.9 °F 100% 29.90 in 1.8 mi ENE 3.5 mph - N/A   Mostly Cloudy
1:35 AM 55.9 °F 55.9 °F 100% 29.90 in 1.0 mi East 3.5 mph - N/A   Mostly Cloudy
1:42 AM 55.9 °F 55.9 °F 100% 29.91 in 0.5 mi Calm Calm - N/A Fog Fog
1:51 AM 55.0 °F 55.0 °F 100% 29.90 in 1.2 mi Calm Calm - N/A   Overcast
1:54 AM 55.0 °F 55.0 °F 100% 29.90 in 0.8 mi Calm Calm - N/A   Mist
2:14 AM 54.0 °F 54.0 °F 100% 29.90 in 1.5 mi Calm Calm - N/A   Mostly Cloudy
2:16 AM 54.0 °F 54.0 °F 100% 29.90 in 4.0 mi Calm Calm - N/A   Mostly Cloudy
2:32 AM 53.1 °F 53.1 °F 100% 29.90 in 9.0 mi South 3.5 mph - N/A   Partly Cloudy
2:51 AM 53.1 °F 53.1 °F 100% 29.89 in 10.0 mi Calm Calm - N/A   Clear
3:27 AM 53.1 °F 53.1 °F 100% 29.90 in 10.0 mi Calm Calm - N/A   Scattered Clouds
3:36 AM 53.1 °F 52.0 °F 96% 29.89 in 10.0 mi Calm Calm - N/A   Mostly Cloudy
3:49 AM 53.6 °F 53.6 °F 100% 29.89 in 1.0 mi ESE 3.5 mph - N/A   Mist
3:51 AM 53.1 °F 53.1 °F 100% 29.89 in 0.5 mi East 3.5 mph - N/A Fog Fog
4:51 AM 53.1 °F 53.1 °F 100% 29.91 in 0.2 mi Calm Calm - N/A Fog Fog
5:51 AM 53.1 °F 53.1 °F 100% 29.92 in 0.2 mi Calm Calm - N/A Fog Fog
6:51 AM 54.0 °F 54.0 °F 100% 29.94 in 0.2 mi Calm Calm - N/A Fog Fog
7:11 AM 54.0 °F 54.0 °F 100% 29.95 in 1.2 mi Calm Calm - N/A   Overcast
7:17 AM 54.0 °F 54.0 °F 100% 29.95 in 2.0 mi Calm Calm - N/A   Overcast
7:28 AM 54.0 °F 54.0 °F 100% 29.95 in 9.0 mi Calm Calm - N/A   Mostly Cloudy
7:44 AM 55.0 °F 55.0 °F 100% 29.95 in 10.0 mi Calm Calm - N/A   Scattered Clouds
7:51 AM 55.0 °F 55.0 °F 100% 29.95 in 10.0 mi Calm Calm - N/A   Partly Cloudy
8:51 AM 57.0 °F 57.0 °F 100% 29.96 in 10.0 mi Calm Calm - N/A   Scattered Clouds
9:51 AM 62.1 °F 55.9 °F 80% 29.96 in 10.0 mi Calm Calm - N/A   Partly Cloudy
10:51 AM 69.1 °F 55.0 °F 61% 29.95 in 10.0 mi Calm Calm - N/A   Clear
11:51 AM 73.0 °F 55.9 °F 55% 29.94 in 10.0 mi Calm Calm - N/A   Clear
12:51 PM 73.9 °F 54.0 °F 50% 29.93 in 10.0 mi NNE 4.6 mph - N/A   Clear
1:51 PM 73.9 °F 57.0 °F 55% 29.92 in 10.0 mi Calm Calm - N/A   Partly Cloudy
2:51 PM 75.0 °F 55.0 °F 50% 29.94 in 10.0 mi WNW 8.1 mph - N/A   Partly Cloudy
3:51 PM 75.0 °F 54.0 °F 48% 29.94 in 10.0 mi NNW 9.2 mph - N/A   Clear
4:51 PM 73.9 °F 50.0 °F 43% 29.95 in 10.0 mi WNW 11.5 mph - N/A   Clear
5:51 PM 73.0 °F 52.0 °F 48% 29.96 in 10.0 mi NNW 9.2 mph - N/A   Partly Cloudy
6:51 PM 71.1 °F 54.0 °F 55% 29.97 in 10.0 mi WNW 5.8 mph - N/A   Clear
7:51 PM 66.9 °F 54.0 °F 63% 29.99 in 10.0 mi NW 4.6 mph - N/A   Clear
8:51 PM 61.0 °F 55.0 °F 81% 30.01 in 10.0 mi Calm Calm - N/A   Clear
9:51 PM 61.0 °F 55.0 °F 81% 30.03 in 10.0 mi NW 4.6 mph - N/A   Clear
10:51 PM 57.9 °F 55.0 °F 90% 30.04 in 10.0 mi WNW 3.5 mph - N/A   Clear
11:51 PM 57.0 °F 54.0 °F 89% 30.05 in 10.0 mi Calm Calm - N/A   Clear